Natchez, MS

6:19 PM CDT on October 17, 2019 (GMT -0500)
Hardy-Anders-Adams County

Weather History for KHEZ - September, 2019

Change the Weather History Date:

Monday, September 23, 2019

  Actual Average Record
Temperature  
Mean Temperature 79 °F -  
Max Temperature 88 °F 85 °F 97 °F (1931)
Min Temperature 70 °F 63 °F 44 °F (1999)
Cooling Degree Days 14    
Growing Degree Days 29 (Base 50)    
Moisture  
Dew Point 70 °F    
Average Humidity 76    
Maximum Humidity 97    
Minimum Humidity 53    
Precipitation  
Precipitation 0.00 in - - ()
Sea Level Pressure  
Sea Level Pressure 30.06 in    
Wind  
Wind Speed 4 mph (SSE)    
Max Wind Speed 8 mph    
Max Gust Speed -    
Visibility 10 miles    
Events      
Averages and records for this station are not official NWS values.
T = Trace of Precipitation, MM = Missing Value Source: NWS Daily Summary

Daily Weather History Graph

Daily Weather History Graph

Search for Another Location

Airport or City:

Astronomy

Sep. 23, 2019 Rise Set
Actual Time 6:53 AM CDT 7:00 PM CDT
Civil Twilight 6:29 AM CDT 7:25 PM CDT
Nautical Twilight 6:01 AM CDT 7:53 PM CDT
Astronomical Twilight 5:32 AM CDT 8:21 PM CDT
Moon 1:00 AM CDT (9/23) 3:31 PM CDT (9/23)
Length of Visible Light 12h 55m
Length of Day
12h 06m
Waning Crescent, 33% of the Moon is Illuminated
Sep 23
Waning Crescent
Sep 28
New
Oct 5
First Quarter
Oct 13
Full
Oct 21
Last Quarter

Hourly Weather History & Observations

Time (CDT) Temp. Heat Index Dew Point Humidity Pressure Visibility Wind Dir Wind Speed Gust Speed Precip Events Conditions
12:56 AM 73.9 °F - 70.0 °F 87% 30.08 in 10.0 mi SSE 4.6 mph - N/A   Clear
1:56 AM 73.9 °F - 70.0 °F 87% 30.07 in 10.0 mi South 8.1 mph - N/A   Clear
2:56 AM 73.9 °F - 70.0 °F 87% 30.06 in 10.0 mi South 4.6 mph - N/A   Clear
3:56 AM 72.0 °F - 70.0 °F 93% 30.06 in 10.0 mi SSE 3.5 mph - N/A   Clear
4:56 AM 71.1 °F - 69.1 °F 93% 30.07 in 10.0 mi Calm Calm - N/A   Clear
5:56 AM 71.1 °F - 69.1 °F 93% 30.07 in 10.0 mi Calm Calm - N/A   Clear
6:56 AM 70.0 °F - 69.1 °F 97% 30.09 in 10.0 mi SE 3.5 mph - N/A   Clear
7:56 AM 73.9 °F - 70.0 °F 87% 30.10 in 10.0 mi Calm Calm - N/A   Clear
8:11 AM 73.4 °F - 71.6 °F 94% 30.11 in 10.0 mi Calm Calm - N/A   Partly Cloudy
8:56 AM 79.0 °F - 71.1 °F 77% 30.11 in 10.0 mi Variable 3.5 mph - N/A   Clear
9:56 AM 82.9 °F 87.0 °F 70.0 °F 65% 30.12 in 10.0 mi SSE 3.5 mph - N/A   Clear
10:56 AM 84.9 °F 88.2 °F 68.0 °F 57% 30.13 in 10.0 mi Variable 3.5 mph - N/A   Mostly Cloudy
11:56 AM 88.0 °F 92.1 °F 69.1 °F 53% 30.12 in 10.0 mi West 8.1 mph - N/A   Scattered Clouds
12:56 PM 87.1 °F 90.6 °F 68.0 °F 53% 30.10 in 10.0 mi Calm Calm - N/A   Overcast
1:56 PM 86.0 °F 89.4 °F 68.0 °F 55% 30.07 in 10.0 mi NE 5.8 mph - N/A   Overcast
2:56 PM 87.1 °F 91.3 °F 69.1 °F 55% 30.05 in 10.0 mi SE 6.9 mph - N/A   Overcast
3:56 PM 88.0 °F 92.1 °F 69.1 °F 53% 30.04 in 10.0 mi SE 5.8 mph - N/A   Overcast
4:56 PM 88.0 °F 92.1 °F 69.1 °F 53% 30.02 in 10.0 mi ESE 3.5 mph - N/A   Clear
5:56 PM 87.1 °F 90.6 °F 68.0 °F 53% 30.01 in 10.0 mi SE 5.8 mph - N/A   Clear
6:56 PM 81.0 °F 85.2 °F 72.0 °F 74% 30.01 in 10.0 mi Calm Calm - N/A   Clear
7:56 PM 77.0 °F - 71.1 °F 82% 30.01 in 10.0 mi SSE 3.5 mph - N/A   Clear
8:56 PM 75.0 °F - 72.0 °F 90% 30.02 in 10.0 mi SSE 3.5 mph - N/A   Clear
9:56 PM 73.9 °F - 71.1 °F 91% 30.01 in 10.0 mi Calm Calm - N/A   Clear
10:56 PM 73.0 °F - 70.0 °F 90% 30.02 in 10.0 mi Calm Calm - N/A   Clear
11:56 PM 73.0 °F - 70.0 °F 90% 30.01 in 10.0 mi Calm Calm - N/A   Clear